When you browse on this site, cookies collect data to enhance your experience and personalize the content and advertising you see.
Visit our Privacy Policy to learn more. By continuing to use the site, you agree to this use of cookies and data.
  • En España
  • Lista de países
  • Para 7 días
  • Temperatura del agua
  • El tiempo en el mapa
  • Informadores
  • user-avatar
    Iniciar sesión

    Tiempo cada hora Yampol

    Hoy, 3 Abril, Viernes

    Tiempo Temperatura Precipitaciones Viento Presión Humedad
    00:00 +1°C° 0 mm 3 mps 741 mmHg 72%
    01:00 0°C° 0 mm 3 mps 741 mmHg 73%
    02:00 0°C° 0 mm 3 mps 742 mmHg 73%
    03:00 0°C° 0 mm 3 mps 741 mmHg 74%
    04:00 0°C° 0 mm 3 mps 741 mmHg 75%
    05:00 0°C° 0 mm 3 mps 741 mmHg 76%
    06:00 0°C° 0 mm 4 mps 741 mmHg 71%
    07:00 +2°C° 0 mm 5 mps 741 mmHg 65%
    08:00 +3°C° 0 mm 5 mps 741 mmHg 60%
    09:00 +5°C° 0 mm 6 mps 741 mmHg 55%
    10:00 +8°C° 0 mm 7 mps 741 mmHg 49%
    11:00 +9°C° 0 mm 7 mps 740 mmHg 44%
    12:00 +10°C° 0 mm 8 mps 740 mmHg 41%
    13:00 +10°C° 0 mm 8 mps 740 mmHg 39%
    14:00 +11°C° 0 mm 8 mps 740 mmHg 37%
    15:00 +10°C° 0 mm 7 mps 740 mmHg 39%
    16:00 +10°C° 0 mm 6 mps 740 mmHg 41%
    17:00 +10°C° 0 mm 6 mps 740 mmHg 43%
    18:00 +8°C° 0 mm 5 mps 740 mmHg 47%
    19:00 +7°C° 0 mm 5 mps 740 mmHg 51%
    20:00 +6°C° 0 mm 4 mps 741 mmHg 54%
    21:00 +5°C° 0 mm 4 mps 741 mmHg 57%
    22:00 +5°C° 0 mm 4 mps 741 mmHg 60%
    23:00 +5°C° 0 mm 4 mps 742 mmHg 63%

    Mañana, 4 Abril, Sábado

    Tiempo Temperatura Precipitaciones Viento Presión Humedad
    00:00 +4°C° 0 mm 4 mps 742 mmHg 69%
    01:00 +3°C° 0 mm 3 mps 743 mmHg 76%
    02:00 +3°C° 0 mm 3 mps 743 mmHg 83%
    03:00 +2°C° 0 mm 3 mps 743 mmHg 86%
    04:00 +2°C° 0 mm 3 mps 744 mmHg 88%
    05:00 +1°C° 0 mm 3 mps 744 mmHg 90%
    06:00 +1°C° 0 mm 4 mps 745 mmHg 82%
    07:00 +3°C° 0 mm 4 mps 746 mmHg 73%
    08:00 +3°C° 0 mm 5 mps 746 mmHg 65%
    09:00 +5°C° 0 mm 5 mps 747 mmHg 57%
    10:00 +5°C° 0 mm 6 mps 747 mmHg 49%
    11:00 +7°C° 0 mm 6 mps 747 mmHg 41%
    12:00 +7°C° 0 mm 6 mps 748 mmHg 39%
    13:00 +8°C° 0 mm 6 mps 748 mmHg 38%
    14:00 +8°C° 0 mm 6 mps 748 mmHg 36%
    15:00 +8°C° 0 mm 6 mps 748 mmHg 37%
    16:00 +7°C° 0 mm 5 mps 749 mmHg 38%
    17:00 +7°C° 0 mm 5 mps 749 mmHg 38%
    18:00 +6°C° 0 mm 5 mps 749 mmHg 45%
    19:00 +4°C° 0 mm 4 mps 750 mmHg 51%
    20:00 +3°C° 0 mm 3 mps 750 mmHg 57%
    21:00 +3°C° 0 mm 3 mps 751 mmHg 60%
    22:00 +2°C° 0 mm 3 mps 751 mmHg 64%
    23:00 +1°C° 0 mm 3 mps 751 mmHg 67%

    Pasado mañana, 5 Abril, Domingo

    Tiempo Temperatura Precipitaciones Viento Presión Humedad
    00:00 +1°C° 0 mm 3 mps 751 mmHg 68%
    01:00 +1°C° 0 mm 3 mps 751 mmHg 68%
    02:00 0°C° 0 mm 3 mps 752 mmHg 69%
    03:00 -1°C° 0 mm 4 mps 752 mmHg 70%
    04:00 -1°C° 0 mm 4 mps 752 mmHg 71%
    05:00 -2°C° 0 mm 5 mps 752 mmHg 72%
    06:00 -2°C° 0 mm 6 mps 753 mmHg 69%
    07:00 -1°C° 0 mm 7 mps 753 mmHg 66%
    08:00 0°C° 0 mm 7 mps 754 mmHg 63%
    09:00 0°C° 0 mm 8 mps 754 mmHg 52%
    10:00 +1°C° 0 mm 9 mps 755 mmHg 41%
    11:00 +2°C° 0 mm 9 mps 756 mmHg 30%
    12:00 +2°C° 0 mm 9 mps 756 mmHg 29%
    13:00 +2°C° 0 mm 9 mps 756 mmHg 29%
    14:00 +3°C° 0 mm 9 mps 757 mmHg 28%
    15:00 +2°C° 0 mm 9 mps 757 mmHg 29%
    16:00 +2°C° 0 mm 8 mps 757 mmHg 31%
    17:00 +2°C° 0 mm 8 mps 757 mmHg 32%
    18:00 +2°C° 0 mm 6 mps 758 mmHg 37%
    19:00 +1°C° 0 mm 5 mps 759 mmHg 42%
    20:00 -1°C° 0 mm 4 mps 759 mmHg 47%
    21:00 0°C° 0 mm 3 mps 760 mmHg 50%
    22:00 -1°C° 0 mm 3 mps 760 mmHg 53%
    23:00 -1°C° 0 mm 3 mps 760 mmHg 56%

    6 Abril, Lunes

    Tiempo Temperatura Precipitaciones Viento Presión Humedad
    00:00 -1°C° 0 mm 3 mps 760 mmHg 58%
    01:00 -2°C° 0 mm 3 mps 761 mmHg 59%
    02:00 -2°C° 0 mm 3 mps 761 mmHg 60%
    03:00 -2°C° 0 mm 3 mps 761 mmHg 61%
    04:00 -2°C° 0 mm 3 mps 761 mmHg 62%
    05:00 -2°C° 0 mm 2 mps 762 mmHg 63%
    06:00 0°C° 0 mm 3 mps 762 mmHg 56%
    07:00 +1°C° 0 mm 3 mps 762 mmHg 49%
    08:00 +3°C° 0 mm 3 mps 763 mmHg 43%
    09:00 +4°C° 0 mm 4 mps 763 mmHg 40%
    10:00 +5°C° 0 mm 4 mps 763 mmHg 37%
    11:00 +6°C° 0 mm 4 mps 763 mmHg 34%
    12:00 +7°C° 0 mm 4 mps 763 mmHg 35%
    13:00 +7°C° 0 mm 4 mps 763 mmHg 36%
    14:00 +8°C° 0 mm 5 mps 762 mmHg 37%
    15:00 +8°C° 0 mm 4 mps 762 mmHg 38%
    16:00 +8°C° 0 mm 4 mps 762 mmHg 40%
    17:00 +7°C° 0 mm 4 mps 762 mmHg 41%
    18:00 +7°C° 0 mm 3 mps 762 mmHg 46%
    19:00 +5°C° 0 mm 3 mps 761 mmHg 50%
    20:00 +4°C° 0 mm 2 mps 761 mmHg 55%
    21:00 +4°C° 0 mm 2 mps 761 mmHg 56%
    22:00 +4°C° 0 mm 2 mps 761 mmHg 58%
    23:00 +3°C° 0 mm 2 mps 761 mmHg 59%

    7 Abril, Martes

    Tiempo Temperatura Precipitaciones Viento Presión Humedad
    00:00 +3°C° 0 mm 2 mps 761 mmHg 60%
    01:00 +2°C° 0 mm 2 mps 761 mmHg 61%
    02:00 +2°C° 0 mm 2 mps 761 mmHg 62%
    03:00 +2°C° 0 mm 2 mps 761 mmHg 62%
    04:00 +2°C° 0 mm 2 mps 761 mmHg 63%
    05:00 +1°C° 0 mm 2 mps 761 mmHg 63%
    06:00 +3°C° 0 mm 2 mps 761 mmHg 59%
    07:00 +3°C° 0 mm 3 mps 761 mmHg 54%
    08:00 +5°C° 0 mm 3 mps 761 mmHg 50%
    09:00 +8°C° 0 mm 3 mps 760 mmHg 45%
    10:00 +10°C° 0 mm 4 mps 760 mmHg 40%
    11:00 +11°C° 0 mm 4 mps 759 mmHg 35%
    12:00 +12°C° 0 mm 4 mps 759 mmHg 33%
    13:00 +13°C° 0 mm 5 mps 759 mmHg 32%
    14:00 +14°C° 0 mm 5 mps 758 mmHg 31%
    15:00 +13°C° 0 mm 5 mps 758 mmHg 33%
    16:00 +13°C° 0 mm 4 mps 758 mmHg 35%
    17:00 +13°C° 0 mm 4 mps 757 mmHg 37%
    18:00 +11°C° 0 mm 4 mps 757 mmHg 42%
    19:00 +9°C° 0 mm 3 mps 756 mmHg 46%
    20:00 +8°C° 0 mm 3 mps 756 mmHg 51%
    21:00 +7°C° 0 mm 3 mps 756 mmHg 53%
    22:00 +7°C° 0 mm 3 mps 756 mmHg 54%
    23:00 +5°C° 0 mm 3 mps 755 mmHg 56%

    8 Abril, Miércoles

    Tiempo Temperatura Precipitaciones Viento Presión Humedad
    00:00 +5°C° 0 mm 4 mps 755 mmHg 57%
    01:00 +5°C° 0 mm 4 mps 755 mmHg 59%
    02:00 +5°C° 0 mm 4 mps 755 mmHg 61%
    03:00 +4°C° 0 mm 4 mps 754 mmHg 64%
    04:00 +4°C° 0 mm 4 mps 754 mmHg 68%
    05:00 +4°C° 0 mm 4 mps 754 mmHg 72%
    06:00 +5°C° 0 mm 4 mps 754 mmHg 69%
    07:00 +6°C° 0 mm 5 mps 754 mmHg 66%
    08:00 +8°C° 0 mm 5 mps 754 mmHg 64%
    09:00 +10°C° 0 mm 5 mps 753 mmHg 60%
    10:00 +11°C° 0 mm 6 mps 753 mmHg 56%
    11:00 +14°C° 0 mm 6 mps 753 mmHg 52%
    12:00 +14°C° 0 mm 6 mps 753 mmHg 53%
    13:00 +14°C° 0 mm 7 mps 753 mmHg 54%
    14:00 +15°C° 0 mm 7 mps 753 mmHg 55%
    15:00 +14°C° 0 mm 7 mps 753 mmHg 52%
    16:00 +14°C° 0 mm 7 mps 753 mmHg 50%
    17:00 +13°C° 0 mm 6 mps 753 mmHg 48%
    18:00 +11°C° 0 mm 6 mps 753 mmHg 51%
    19:00 +9°C° 0 mm 5 mps 753 mmHg 54%
    20:00 +8°C° 0 mm 4 mps 754 mmHg 57%
    21:00 +7°C° 0 mm 4 mps 754 mmHg 57%
    22:00 +6°C° 0 mm 4 mps 754 mmHg 56%
    23:00 +5°C° 0 mm 4 mps 754 mmHg 56%
    Mostrar más